Location: Lac de la Montagne noire
(46.1952°N, 74.2701°W)
Time: 20:58:13
(UTC-04:00)

ISS - Pass Details

Date: 26 March 2019
Orbit: 408 x 410 km, 51.6° (Epoch: 23 April)

Event Time Altitude Azimuth Distance (km) Brightness Sun altitude
Rises 20:33:59 0° 263° (W) 2,332 1.3 -13.8°
Reaches altitude 10° 20:36:08 10° 270° (W) 1,472 0.2 -14.1°
Maximum altitude 20:39:18 42° 344° (NNW) 594 -2.7 -14.6°
Enters shadow 20:41:39 16° 51° (NE) 1,162 -1.8 -15.0°
